Regional Weather Roundup
Issued by NWS

Home | Current Version | Previous Version | Graphics & Text | Print | Product List | Glossary Off
Versions: 1 2 3 4 5 6 7 8 9 10 11 12 13 14 15 16 17 18 19 20 21 22 23 24 25 26 27 28 29 30 31 32 33 34 35 36 37 38 39 40 41 42 43 44 45 46 47 48 49 50

000
ASUS43 KTOP 272359
RWRKS

WEATHER ROUNDUP FOR KANSAS
NATIONAL WEATHER SERVICE GOODLAND KS
700 PM CDT FRI MAY 27 2016

NOTE:  "FAIR" INDICATES FEW OR NO CLOUDS BELOW 12,000 FEET WITH NO
SIGNIFICANT WEATHER AND/OR OBSTRUCTIONS TO VISIBILITY.

KSZ001>006-013>018-027>032-041>047-280100-
NORTHWEST KANSAS

CITY           SKY/WX    TMP DP  RH WIND       PRES   REMARKS
GOODLAND       CLOUDY    55  49  80 N20G33    29.77R
6HR MIN TEMP:  55; 6HR MAX TEMP:  65; 6HR PCP:  0.05;

HAYS           PTSUNNY   43 N/A N/A N15       29.64R THUNDER
HILL CITY      PTSUNNY   67  58  72 N9        29.68F
6HR MIN TEMP:  60; 6HR MAX TEMP:  68; 6HR PCP: TRACE;

RUSSELL        CLOUDY    71  63  75 NE7       29.60F
6HR MIN TEMP:  66; 6HR MAX TEMP:  77;

$$

KSZ061>065-074>080-084>089-280100-
SOUTHWEST KANSAS

CITY           SKY/WX    TMP DP  RH WIND       PRES   REMARKS
DODGE CITY     CLOUDY    70  45  40 SW18      29.63S
6HR MIN TEMP:  69; 6HR MAX TEMP:  75; 6HR PCP: TRACE;

ELKHART          N/A     65  44  46 NW23        N/A
GARDEN CITY    CLOUDY    68  45  43 W9        29.64S
6HR MIN TEMP:  68; 6HR MAX TEMP:  76;

GREAT BEND     MOSUNNY   75  54  46 S6        29.60F
LIBERAL        SUNNY     70  45  40 NW23G29   29.69R
$$

KSZ066>073-081>083-090>101-280100-
SOUTHEAST KANSAS

CITY           SKY/WX    TMP DP  RH WIND       PRES   REMARKS
CHANUTE        CLOUDY    74  65  73 SE10      29.67F
6HR MIN TEMP:  71; 6HR MAX TEMP:  76; 6HR PCP:  0.05;

COFFEYVILLE    CLOUDY    76  67  73 SE13      29.65F
6HR MIN TEMP:  72; 6HR MAX TEMP:  79; 6HR PCP:  0.01;

HUTCHINSON     CLOUDY    69  61  75 SE13      29.62F
6HR MIN TEMP:  68; 6HR MAX TEMP:  81;

MEDICINE LODGE   N/A     79  50  36 S8        29.61F
NEWTON         CLOUDY    63  55  77 SE10      29.68S
PARSONS        MOSUNNY   75  66  73 SE8       29.67F
6HR MIN TEMP:  71; 6HR MAX TEMP:  77; 6HR PCP:  0.03;

WICHITA INTL   CLOUDY    65  61  87 E10       29.63F
6HR MIN TEMP:  65; 6HR MAX TEMP:  79; 6HR PCP:  0.11;

WICHITA JABRA  LGT RAIN  62  61  96 E10       29.65F
6HR MIN TEMP:  60; 6HR MAX TEMP:  78; 6HR PCP:  0.55;

WICHITA MCCONL SUNNY     64  61  88 E9        29.66F
WINFIELD       TSTM      62  59  90 CALM      29.70R FOG
6HR MIN TEMP:  62; 6HR MAX TEMP:  80; 6HR PCP:  0.22;

$$

KSZ007>012-019>026-033>040-048>060-102>105-280100-
NORTHEAST KANSAS

CITY           SKY/WX    TMP DP  RH WIND       PRES   REMARKS
CONCORDIA      CLOUDY    69  62  78 SE7       29.64R
6HR MIN TEMP:  68; 6HR MAX TEMP:  78;

EMPORIA        CLOUDY    63  56  78 W20G33    29.74R
6HR MIN TEMP:  63; 6HR MAX TEMP:  73; 6HR PCP: TRACE;

LAWRENCE       CLOUDY    71  67  87 SE3       29.69R
6HR MIN TEMP:  71; 6HR MAX TEMP:  76; 6HR PCP:  0.02;

MANHATTAN      TSTM      60  56  86 SW8       29.70R FOG
6HR MIN TEMP:  60; 6HR MAX TEMP:  79; 6HR PCP:  0.27;

OLATHE IND     CLOUDY    70  62  76 SE5       29.70R
6HR MIN TEMP:  69; 6HR MAX TEMP:  77; 6HR PCP:  0.03;

OLATHE EXE     CLOUDY    71  61  70 S3        29.70S
6HR MIN TEMP:  71; 6HR MAX TEMP:  78; 6HR PCP:  0.03;

SALINA         CLOUDY    68  59  73 S10       29.62F
6HR MIN TEMP:  68; 6HR MAX TEMP:  80; 6HR PCP: TRACE;

TOPEKA BILLARD LGT RAIN  72  67  84 E3        29.68F
6HR MIN TEMP:  72; 6HR MAX TEMP:  75; 6HR PCP:  0.01;

TOPEKA FORBES  CLOUDY    73  67  81 SE3       29.69S
6HR MIN TEMP:  72; 6HR MAX TEMP:  75; 6HR PCP: TRACE;

$$




USA.gov is the U.S. government's official web portal to all federal, state and local government web resources and services.